KF3BH Weather Reports


time (UTC)temp
C
wind
direction
speed
KPH
gust
KPH
rain 1hr
cm
rain 24hr
cm
rain mn
cm
humidity
%
barometer
mb
20260504190025 21 235 9.7 16.1 0.00 0.00 0.00 38 1009.3
20260504185025 21 188 4.8 19.3 0.00 0.00 0.00 40 1009.5
20260504184025 21 180 8.0 16.1 0.00 0.00 0.00 38 1009.6
20260504183024 21 129 8.0 19.3 0.00 0.00 0.00 40 1009.7
20260504182025 21 222 8.0 19.3 0.00 0.00 0.00 38 1009.8
20260504181025 21 187 9.7 16.1 0.00 0.00 0.00 37 1010.1
20260504180025 21 147 6.4 19.3 0.00 0.00 0.00 37 1010.1
20260504175025 20 155 4.8 19.3 0.00 0.00 0.00 39 1010.3
20260504174024 20 243 8.0 14.5 0.00 0.00 0.00 40 1010.4
20260504172024 21 190 9.7 19.3 0.00 0.00 0.00 38 1010.6
20260504171025 20 255 4.8 27.4 0.00 0.00 0.00 39 1010.6
20260504151025 17 196 4.8 12.9 0.00 0.00 0.00 40 1012.4
20260504141025 15 205 3.2 8.0 0.00 0.00 0.00 43 1012.8
20260504081025 7 209 0.0 0.0 0.00 0.00 0.00 60 1013.7
20260504050025 8 179 1.6 3.2 0.00 0.00 0.00 57 1013.9
20260504043025 8 204 3.2 8.0 0.00 0.00 0.00 52 1013.9
20260504042025 9 208 3.2 4.8 0.00 0.00 0.00 52 1013.7
20260504041024 9 229 3.2 9.7 0.00 0.00 0.00 50 1013.7
20260504035025 9 223 3.2 9.7 0.00 0.00 0.00 50 1013.6
20260504034025 9 205 3.2 9.7 0.00 0.00 0.00 50 1013.5
20260504033025 10 214 3.2 9.7 0.00 0.00 0.00 49 1013.5
20260504032025 10 222 1.6 8.0 0.00 0.00 0.00 49 1013.5
20260504031025 10 238 1.6 9.7 0.00 0.00 0.00 49 1013.5
20260504024025 10 221 3.2 11.3 0.00 0.00 0.00 48 1013.4
20260504023025 10 246 4.8 12.9 0.00 0.00 0.00 48 1013.5
20260504022025 10 199 3.2 12.9 0.00 0.00 0.00 47 1013.6
20260504021025 11 199 4.8 12.9 0.00 0.00 0.00 46 1013.6
20260504015025 11 213 4.8 9.7 0.00 0.00 0.00 45 1013.5
20260504014025 11 233 1.6 9.7 0.00 0.00 0.00 45 1013.4
20260504013025 11 208 1.6 14.5 0.00 0.00 0.00 45 1013.3
20260504012025 11 214 3.2 9.7 0.00 0.00 0.00 45 1013.3
20260504011025 11 183 1.6 9.7 0.00 0.00 0.00 44 1013.2
20260504010024 11 235 3.2 8.0 0.00 0.00 0.00 44 1013.1
20260504005025 11 197 4.8 14.5 0.00 0.00 0.00 44 1013.0
20260504004025 11 207 1.6 11.3 0.00 0.00 0.00 43 1012.9
20260504002025 12 264 3.2 12.9 0.00 0.00 0.00 41 1012.7
20260504001025 12 264 3.2 16.1 0.00 0.00 0.00 40 1012.7
20260504000024 12 272 1.6 14.5 0.00 0.00 0.00 40 1012.5
20260503235025 13 317 3.2 12.9 0.00 0.00 0.00 39 1012.5
20260503234027 13 211 3.2 12.9 0.00 0.00 0.00 38 1012.4
20260503233025 13 283 4.8 12.9 0.00 0.00 0.00 38 1012.3
20260503232025 13 226 4.8 16.1 0.00 0.00 0.00 37 1012.3
20260503231025 13 220 6.4 16.1 0.00 0.00 0.00 36 1012.3
20260503230025 14 272 1.6 16.1 0.00 0.00 0.00 37 1012.3
20260503225025 13 272 4.8 16.1 0.00 0.00 0.00 37 1012.3
20260503223025 14 272 8.0 27.4 0.00 0.00 0.00 34 1012.3
20260503221025 15 285 11.3 25.7 0.00 0.00 0.00 33 1012.3
20260503220024 15 311 8.0 19.3 0.00 0.00 0.00 35 1012.3
20260503214025 14 258 6.4 19.3 0.00 0.00 0.00 35 1012.3
20260503213025 15 256 4.8 24.1 0.00 0.00 0.00 33 1012.2
20260503212025 15 333 8.0 29.0 0.00 0.00 0.00 33 1012.1
20260503211025 14 313 8.0 20.9 0.00 0.00 0.00 34 1012.1
20260503210024 15 316 11.3 25.7 0.00 0.00 0.00 34 1012.2
20260503205025 15 289 4.8 19.3 0.00 0.00 0.00 34 1012.1
20260503204025 15 308 14.5 25.7 0.00 0.00 0.00 35 1012.1
20260503202025 14 340 11.3 25.7 0.00 0.00 0.00 33 1012.3
20260503201024 15 224 4.8 19.3 0.00 0.00 0.00 35 1012.2
20260503200025 15 289 11.3 19.3 0.00 0.00 0.00 34 1012.4
20260503195025 13 210 4.8 19.3 0.00 0.00 0.00 34 1012.6
20260503194025 13 203 4.8 20.9 0.00 0.00 0.00 35 1012.9
20260503193026 13 322 8.0 25.7 0.00 0.00 0.00 33 1012.9
20260503192025 13 340 8.0 22.5 0.00 0.00 0.00 33 1013.0
20260503191025 13 270 6.4 25.7 0.00 0.00 0.00 34 1013.1